Flight Track Log - Related Links

Times and Time Zones

All times are in EST time to prevent confusion due to time zone crossing. See the N31DL flight status page for this flight to view local times or setup timezone preferences in your user account.

Time Position Orientation Groundspeed Altitude Reporting Facility
EST Latitude Longitude Course Direction KTS MPH feet Rate Location/Type
Sat 07:26:10 PM 32.3808 -90.0764 12° North 96 110 2,000  Level Memphis Center
Sat 07:27:11 PM 32.4092 -90.0703 10° North 100 115 2,700 738 Climbing Memphis Center
Sat 07:28:12 PM 32.4428 -90.0622 11° North 102 117 3,500 689 Climbing Memphis Center
Sat 07:29:13 PM 32.4692 -90.0547 13° North 101 116 4,100 590 Climbing Memphis Center
Sat 07:30:00 PM 32.5648 -90.0180 12° North  Level Estimated
Sat 07:30:14 PM 32.4981 -90.0464 14° North 103 119 4,700  Level Memphis Center
Sat 07:31:00 PM 32.6070 -90.0078 12° North  Level FlightAware Approximate
Sat 07:31:15 PM 32.5300 -90.0425 North 108 124 4,900  Level Memphis Center
Sat 07:32:16 PM 32.5681 -90.0392 North 122 140 4,900  Level Memphis Center
Sat 07:33:17 PM 32.6083 -90.0278 13° North 138 159 4,900  Level Memphis Center
Sat 07:34:18 PM 32.6489 -90.0125 18° North 147 169 4,900 49 Level Memphis Center
Sat 07:35:19 PM 32.6894 -90.0039 10° North 149 171 5,000  Climbing Memphis Center
Sat 07:36:21 PM 32.7317 -89.9983 North 151 174 4,900 -49 Descending Memphis Center
Sat 07:37:22 PM 32.7803 -89.9864 12° North 150 173 4,900  Level Memphis Center
Sat 07:38:23 PM 32.8206 -89.9769 11° North 149 171 4,900  Level Memphis Center
Sat 07:39:24 PM 32.8622 -89.9683 10° North 150 173 4,900  Level Memphis Center
Sat 07:40:25 PM 32.9031 -89.9594 10° North 150 173 4,900  Level Memphis Center
Sat 07:41:26 PM 32.9439 -89.9481 13° North 149 171 4,900  Level Memphis Center
Sat 07:42:27 PM 32.9853 -89.9383 11° North 149 171 4,900  Level Memphis Center
Sat 07:43:28 PM 33.0256 -89.9267 14° North 149 171 4,900  Level Memphis Center
Sat 07:44:29 PM 33.0650 -89.9153 14° North 147 169 4,900  Level Memphis Center
Sat 07:45:30 PM 33.1047 -89.9042 13° North 146 168 4,900  Level Memphis Center
Sat 07:46:31 PM 33.1447 -89.8919 14° North 148 170 4,900  Level Memphis Center
Sat 07:47:32 PM 33.1856 -89.8803 13° North 149 171 4,900  Level Memphis Center
Sat 07:48:34 PM 33.2264 -89.8683 14° North 150 173 4,900  Level Memphis Center
Sat 07:49:35 PM 33.2669 -89.8550 15° North 151 174 4,900  Level Memphis Center
Sat 07:50:36 PM 33.3175 -89.8403 14° North 154 177 4,900 49 Level Memphis Center
Sat 07:51:37 PM 33.3592 -89.8311 10° North 154 177 5,000  Climbing Memphis Center
Sat 07:52:38 PM 33.4006 -89.8231 North 153 176 4,900  Descending Memphis Center
Sat 07:53:39 PM 33.4444 -89.8150 North 156 180 5,000 49 Climbing Memphis Center
Sat 07:54:40 PM 33.4856 -89.8061 10° North 153 176 5,000 -49 Level Memphis Center
Sat 07:55:41 PM 33.5286 -89.7975 North 155 178 4,900  Descending Memphis Center
Sat 07:56:42 PM 33.5706 -89.7928 North 154 177 5,000  Climbing Memphis Center
Sat 07:57:44 PM 33.6122 -89.7872 North 152 175 4,900  Descending Memphis Center
Sat 07:58:45 PM 33.6619 -89.7803 North 151 174 5,000 49 Climbing Memphis Center
Sat 07:59:46 PM 33.7031 -89.7739 North 150 173 5,000 -49 Level Memphis Center
Sat 08:00:47 PM 33.7444 -89.7664 North 150 173 4,900  Descending Memphis Center
Sat 08:01:48 PM 33.7856 -89.7564 11° North 151 174 5,000 49 Climbing Memphis Center
Sat 08:02:49 PM 33.8297 -89.7428 14° North 154 177 5,000  Level Memphis Center
Sat 08:03:50 PM 33.8736 -89.7308 13° North 157 181 5,000  Level Memphis Center
Sat 08:04:51 PM 33.9169 -89.7167 15° North 159 183 5,000 -49 Level Memphis Center
Sat 08:05:52 PM 33.9608 -89.7019 16° North 161 185 4,900  Descending Memphis Center
Sat 08:06:53 PM 34.0050 -89.6897 13° North 161 185 5,000 49 Climbing Memphis Center
Sat 08:07:54 PM 34.0503 -89.6792 11° North 163 188 5,000  Level Memphis Center
Sat 08:08:55 PM 34.0950 -89.6722 North 161 185 5,000  Level Memphis Center
Sat 08:09:56 PM 34.1400 -89.6633 North 162 186 5,000  Level Memphis Center
Sat 08:10:58 PM 34.1842 -89.6547 North 159 183 5,000  Level Memphis Center
Sat 08:11:59 PM 34.2281 -89.6444 11° North 159 183 5,000  Level Memphis Center
Sat 08:13:00 PM 34.2722 -89.6339 11° North 160 184 5,000 -49 Level Memphis Center
Sat 08:14:01 PM 34.3164 -89.6231 11° North 161 185 4,900 -49 Descending Memphis Center
Sat 08:15:02 PM 34.3600 -89.6114 12° North 160 184 4,900 -246 Level Memphis Center
Sat 08:16:03 PM 34.4042 -89.5981 14° North 160 184 4,400 -492 Descending Memphis Center
Sat 08:17:04 PM 34.4469 -89.5850 14° North 158 182 3,900 -246 Descending Memphis Center
Sat 08:18:05 PM 34.4908 -89.5739 12° North 159 183 3,900  Level Memphis Center
Sat 08:19:06 PM 34.5325 -89.5639 11° North 154 177 3,900  Level Memphis Center
Sat 08:20:07 PM 34.5744 -89.5564 North 152 175 3,900  Level Memphis Center
Sat 08:21:07 PM 34.6236 -89.5469 North 152 175 3,900  Level Memphis Center
Sat 08:22:08 PM 34.6644 -89.5358 13° North 150 173 3,900  Level Memphis Center
Sat 08:23:09 PM 34.7064 -89.5247 12° North 151 174 3,900  Level Memphis Center
Sat 08:24:10 PM 34.7478 -89.5131 13° North 152 175 3,900  Level Memphis Center
Sat 08:25:11 PM 34.7869 -89.4908 25° Northeast 153 176 3,900  Level Memphis Center
Sat 08:26:12 PM 34.8283 -89.4797 12° North 152 175 3,900 -197 Level Memphis Center
Sat 08:27:13 PM 34.8703 -89.4681 13° North 153 176 3,500 -344 Descending Memphis Center
Sat 08:28:14 PM 34.9069 -89.4578 13° North 154 177 3,200 -295 Descending Memphis Center

Login

Don't have an account? Register now (free) for customized features, flight alerts, and more!